Regional Weather Roundup
Issued by NWS Cleveland, OH

Home | Current Version | Previous Version | Text Only | Print | Product List | Glossary Off
Versions: 1 2 3 4 5 6 7 8 9 10 11 12 13 14 15 16 17 18 19 20 21 22 23 24 25 26 27 28 29 30 31 32 33 34 35 36 37 38 39 40 41 42 43 44 45 46 47 48 49 50

000
ASUS41 KCLE 301010
RWRCLE
OHIO REGIONAL WEATHER ROUNDUP
NATIONAL WEATHER SERVICE WILMINGTON, OH
600 AM EDT SAT JUL 30 2016

NOTE: "FAIR" INDICATES FEW OR NO CLOUDS BELOW 12,000 FEET WITH NO
SIGNIFICANT WEATHER AND/OR OBSTRUCTIONS TO VISIBILITY.

OHZ001>008-015>018-024>027-034-035-043-044-301100-
   NORTHWEST OHIO

CITY           SKY/WX    TMP DP  RH WIND       PRES   REMARKS
DEFIANCE       FAIR      66  61  84 NE3       29.94R
FINDLAY        CLOUDY    72  68  87 NE5       29.91S FOG
TOLEDO EXPRESS CLOUDY    65  63  93 N5        29.92S
TOLEDO EXEC    CLOUDY    74  72  93 N5        29.92S
LIMA           MOCLDY    68  68 100 CALM      29.93R FOG
$$

OHZ009>014-019>023-028>033-038-089-301100-
   NORTHEAST OHIO

CITY           SKY/WX    TMP DP  RH WIND       PRES   REMARKS
CLE-HOPKINS    MOCLDY    73  66  78 E6        29.94S
CLE-LAKEFRONT  FAIR      72  67  84 E7        29.91S
CUY CO. ARPT   NOT AVBL
LORAIN-ELYRIA  FAIR      69  66  90 CALM      29.93R
ASHTABULA      CLOUDY    68  68 100 E5        29.97S
AKRON-CANTON   MOCLDY    70  67  90 SE3       29.93F FOG
WOOSTER        FAIR      67  65  93 CALM      29.93S FOG
MANSFIELD      CLOUDY    67  66  97 N3        29.94R FOG
YOUNGSTOWN     MOCLDY    67  65  93 CALM      29.94S
$$

OHZ042-051>053-060>062-070>072-077>081-301100-
  SOUTHWEST OHIO

CITY           SKY/WX    TMP DP  RH WIND       PRES   REMARKS
CINC-COVINGTON CLOUDY    71  70  96 W5        29.93R FOG
CINC-LUNKEN    FAIR      69  69 100 E3        29.92R FOG
HAMILTON       CLOUDY    71  69  93 W3        29.93R FOG
DAYTON         FOG       69  69 100 W5        29.95R VSB 3/4
WRIGHT-PAT AFB MOCLDY    68  68 100 SW2       29.93R FOG
DAYTON GENERAL CLOUDY    69  67  93 CALM      29.93R FOG
WILMINGTON     CLOUDY    69  68  96 NW3       29.93R
$$

OHZ036-037-039>041-045>050-054>059-063>069-073>076-082>088-301100-
  CENTRAL AND SOUTHEAST OHIO

CITY           SKY/WX    TMP DP  RH WIND       PRES   REMARKS
COLUMBUS       MOCLDY    71  69  93 CALM      29.92R
OSU AIRPORT    MOCLDY    71  69  93 SW3       29.93R
BOLTON FIELD   FOG       68  68 100 CALM      29.94R VSB 1
RICKENBACK AFB MOCLDY    68  68 100 CALM      29.92R FOG
NEWARK         FOG       69  68  96 CALM      29.92R VSB 1/4
MARION         CLOUDY    68  65  90 CALM      29.93R FOG
LANCASTER      FAIR      71  70  96 S3        29.92R
ZANESVILLE     CLOUDY    71  66  84 S5        29.93R
NEW PHILLY     FAIR      71  68  90 SE3       29.92F FOG
$$




USA.gov is the U.S. government's official web portal to all federal, state and local government web resources and services.